Location: Newark
(40.9833°N, 0.0333°W)
Time: 16:18:06
(UTC+00:00)

deb Explorer IX - Pass Details

Date: 27 October 2020
Orbit: 538 x 1104 km, 38.8° (Epoch: 22 November)

Event Time Altitude Azimuth Distance (km) Brightness Sun altitude
Rises 12:41:15 0° 272° (W) 3,915 ? 34.4°
Reaches altitude 10° 12:46:02 10° 245° (WSW) 2,949 ? 34.1°
Maximum altitude 12:48:44 12° 223° (SW) 2,752 ? 33.9°
Drops below altitude 10° 12:51:24 10° 201° (SSW) 2,891 ? 33.8°
Sets 12:56:00 0° 174° (S) 3,753 ? 33.5°
